| time (UTC) | temp F | wind direction | speed MPH | gust MPH | rain 1hr in | rain 24hr in | rain mn in | humidity % | barometer mb |
| 20260505184131 | 79 | 260 | 2.0 | 9.0 | 0.00 | 0.00 | 0.00 | 36 | 1003.3 |
| 20260505183627 | 80 | 187 | 9.0 | 15.0 | 0.00 | 0.00 | 0.00 | 34 | 1003.3 |
| 20260505183125 | 79 | 183 | 4.0 | 14.0 | 0.00 | 0.00 | 0.00 | 37 | 1003.6 |
| 20260505182621 | 79 | 243 | 11.0 | 21.0 | 0.00 | 0.00 | 0.00 | 36 | 1003.6 |
| 20260505182118 | 80 | 226 | 5.0 | 10.0 | 0.00 | 0.00 | 0.00 | 36 | 1003.4 |
| 20260505181615 | 78 | 274 | 4.0 | 7.0 | 0.00 | 0.00 | 0.00 | 38 | 1003.6 |
| 20260505181112 | 79 | 209 | 5.0 | 8.0 | 0.00 | 0.00 | 0.00 | 37 | 1003.8 |
| 20260505180608 | 79 | 289 | 6.0 | 7.0 | 0.00 | 0.00 | 0.00 | 36 | 1003.7 |
| 20260505180106 | 78 | 189 | 4.0 | 9.0 | 0.00 | 0.00 | 0.00 | 38 | 1003.8 |
| 20260505175601 | 78 | 249 | 4.0 | 10.0 | 0.00 | 0.00 | 0.00 | 37 | 1004.0 |
| 20260505175058 | 77 | 229 | 6.0 | 12.0 | 0.00 | 0.00 | 0.00 | 37 | 1003.9 |
| 20260505174555 | 78 | 253 | 9.0 | 13.0 | 0.00 | 0.00 | 0.00 | 36 | 1004.2 |
| 20260505174050 | 78 | 181 | 3.0 | 11.0 | 0.00 | 0.00 | 0.00 | 39 | 1004.1 |
| 20260505173548 | 79 | 203 | 3.0 | 6.0 | 0.00 | 0.00 | 0.00 | 37 | 1004.1 |
| 20260505173044 | 78 | 120 | 3.0 | 9.0 | 0.00 | 0.00 | 0.00 | 37 | 1004.3 |
| 20260505172542 | 77 | 190 | 8.0 | 13.0 | 0.00 | 0.00 | 0.00 | 37 | 1004.5 |
| 20260505172038 | 76 | 250 | 6.0 | 13.0 | 0.00 | 0.00 | 0.00 | 38 | 1004.5 |
| 20260505171533 | 76 | 196 | 3.0 | 9.0 | 0.00 | 0.00 | 0.00 | 38 | 1004.4 |
| 20260505171030 | 76 | 220 | 5.0 | 18.0 | 0.00 | 0.00 | 0.00 | 39 | 1004.5 |
| 20260505170527 | 76 | 162 | 2.0 | 14.0 | 0.00 | 0.00 | 0.00 | 38 | 1004.6 |
| 20260505170023 | 76 | 273 | 9.0 | 11.0 | 0.00 | 0.00 | 0.00 | 38 | 1004.9 |
| 20260505165519 | 76 | 268 | 13.0 | 15.0 | 0.00 | 0.00 | 0.00 | 38 | 1004.8 |
| 20260505165015 | 76 | 336 | 3.0 | 11.0 | 0.00 | 0.00 | 0.00 | 39 | 1005.0 |
| 20260505164511 | 76 | 213 | 0.0 | 10.0 | 0.00 | 0.00 | 0.00 | 39 | 1005.1 |
| 20260505164009 | 76 | 276 | 10.0 | 13.0 | 0.00 | 0.00 | 0.00 | 40 | 1005.1 |
| 20260505163507 | 75 | 276 | 8.0 | 17.0 | 0.00 | 0.00 | 0.00 | 39 | 1005.1 |
| 20260505163003 | 75 | 264 | 4.0 | 9.0 | 0.00 | 0.00 | 0.00 | 39 | 1005.2 |
| 20260505162457 | 74 | 156 | 4.0 | 6.0 | 0.00 | 0.00 | 0.00 | 40 | 1005.2 |
| 20260505161953 | 74 | 258 | 5.0 | 16.0 | 0.00 | 0.00 | 0.00 | 39 | 1005.4 |
| 20260505161450 | 74 | 143 | 4.0 | 12.0 | 0.00 | 0.00 | 0.00 | 42 | 1005.7 |
| 20260505160948 | 75 | 272 | 10.0 | 13.0 | 0.00 | 0.00 | 0.00 | 40 | 1005.6 |
| 20260505160446 | 74 | 207 | 4.0 | 10.0 | 0.00 | 0.00 | 0.00 | 41 | 1005.6 |
| 20260505152922 | 70 | 150 | 6.0 | 7.0 | 0.00 | 0.00 | 0.00 | 44 | 1006.2 |
| 20260505152419 | 70 | 258 | 4.0 | 6.0 | 0.00 | 0.00 | 0.00 | 47 | 1006.4 |
| 20260505151919 | 69 | 338 | 0.0 | 4.0 | 0.00 | 0.00 | 0.00 | 46 | 1006.7 |
| 20260505151415 | 68 | 247 | 3.0 | 10.0 | 0.00 | 0.00 | 0.00 | 48 | 1006.4 |
| 20260505150913 | 66 | 139 | 6.0 | 7.0 | 0.00 | 0.00 | 0.00 | 49 | 1006.7 |
| 20260505150410 | 65 | 147 | 3.0 | 8.0 | 0.00 | 0.00 | 0.00 | 49 | 1006.7 |
| 20260505140334 | 64 | 175 | 2.0 | 5.0 | 0.00 | 0.00 | 0.00 | 51 | 1006.7 |
| 20260505130258 | 59 | 208 | 2.0 | 3.0 | 0.00 | 0.00 | 0.00 | 58 | 1006.8 |
| 20260505124748 | 59 | 182 | 0.0 | 3.0 | 0.00 | 0.00 | 0.00 | 57 | 1007.2 |
| 20260505124245 | 59 | 212 | 1.0 | 3.0 | 0.00 | 0.00 | 0.00 | 56 | 1007.2 |
| 20260505123740 | 58 | 127 | 2.0 | 4.0 | 0.00 | 0.00 | 0.00 | 56 | 1006.8 |
| 20260505123237 | 58 | 120 | 2.0 | 3.0 | 0.00 | 0.00 | 0.00 | 56 | 1007.0 |
| 20260505122734 | 59 | 156 | 2.0 | 3.0 | 0.00 | 0.00 | 0.00 | 57 | 1007.1 |
| 20260505122231 | 59 | 155 | 0.0 | 5.0 | 0.00 | 0.00 | 0.00 | 56 | 1007.3 |
| 20260505121728 | 59 | 122 | 3.0 | 5.0 | 0.00 | 0.00 | 0.00 | 55 | 1007.4 |
| 20260505121224 | 58 | 110 | 2.0 | 2.0 | 0.00 | 0.00 | 0.00 | 59 | 1007.1 |
| 20260505120721 | 57 | 89 | 2.0 | 3.0 | 0.00 | 0.00 | 0.00 | 62 | 1007.4 |
| 20260505120217 | 58 | 102 | 4.0 | 4.0 | 0.00 | 0.00 | 0.00 | 61 | 1007.5 |
| 20260505115715 | 55 | 136 | 2.0 | 2.0 | 0.00 | 0.00 | 0.00 | 67 | 1007.7 |
| 20260505115214 | 53 | 89 | 0.0 | 1.0 | 0.00 | 0.00 | 0.00 | 80 | 1007.8 |
| 20260505114711 | 51 | 107 | 2.0 | 3.0 | 0.00 | 0.00 | 0.00 | 82 | 1007.8 |
| 20260505114206 | 50 | 82 | 2.0 | 3.0 | 0.00 | 0.00 | 0.00 | 83 | 1007.8 |
| 20260505113703 | 50 | 96 | 3.0 | 4.0 | 0.00 | 0.00 | 0.00 | 82 | 1007.6 |
| 20260505113200 | 50 | 70 | 2.0 | 3.0 | 0.00 | 0.00 | 0.00 | 84 | 1007.7 |
| 20260505112656 | 48 | 99 | 2.0 | 2.0 | 0.00 | 0.00 | 0.00 | 86 | 1007.7 |
| 20260505112154 | 46 | 58 | 1.0 | 2.0 | 0.00 | 0.00 | 0.00 | 90 | 1007.7 |
| 20260505111653 | 46 | 84 | 1.0 | 3.0 | 0.00 | 0.00 | 0.00 | 89 | 1007.7 |
| 20260505111149 | 46 | 80 | 2.0 | 3.0 | 0.00 | 0.00 | 0.00 | 89 | 1007.7 |
| 20260505110646 | 45 | 72 | 2.0 | 3.0 | 0.00 | 0.00 | 0.00 | 92 | 1007.5 |
| 20260505110143 | 44 | 92 | 3.0 | 4.0 | 0.00 | 0.00 | 0.00 | 92 | 1007.5 |
| 20260505102119 | 41 | 91 | 2.0 | 4.0 | 0.00 | 0.00 | 0.00 | 94 | 1007.4 |
| 20260505101618 | 41 | 86 | 2.0 | 3.0 | 0.00 | 0.00 | 0.00 | 94 | 1007.5 |
| 20260505101113 | 41 | 101 | 2.0 | 2.0 | 0.00 | 0.00 | 0.00 | 95 | 1007.6 |
| 20260505100610 | 41 | 89 | 2.0 | 2.0 | 0.00 | 0.00 | 0.00 | 95 | 1007.7 |
| 20260505100107 | 40 | 89 | 4.0 | 4.0 | 0.00 | 0.00 | 0.00 | 95 | 1007.4 |
| 20260505095603 | 40 | 99 | 3.0 | 4.0 | 0.00 | 0.00 | 0.00 | 95 | 1007.2 |
| 20260505095100 | 39 | 94 | 4.0 | 4.0 | 0.00 | 0.00 | 0.00 | 94 | 1007.2 |
| 20260505094556 | 39 | 97 | 5.0 | 5.0 | 0.00 | 0.00 | 0.00 | 94 | 1007.3 |
| 20260505094052 | 40 | 92 | 4.0 | 5.0 | 0.00 | 0.00 | 0.00 | 94 | 1007.5 |
| 20260505093549 | 40 | 93 | 5.0 | 5.0 | 0.00 | 0.00 | 0.00 | 95 | 1007.5 |
| 20260505093046 | 40 | 94 | 2.0 | 4.0 | 0.00 | 0.00 | 0.00 | 95 | 1007.2 |
| 20260505092544 | 39 | 107 | 3.0 | 4.0 | 0.00 | 0.00 | 0.00 | 95 | 1007.5 |
| 20260505092042 | 39 | 96 | 4.0 | 5.0 | 0.00 | 0.00 | 0.00 | 95 | 1007.5 |
| 20260505091538 | 39 | 91 | 4.0 | 5.0 | 0.00 | 0.00 | 0.00 | 95 | 1007.6 |
| 20260505091037 | 39 | 89 | 3.0 | 4.0 | 0.00 | 0.00 | 0.00 | 95 | 1007.4 |
| 20260505090534 | 39 | 88 | 3.0 | 4.0 | 0.00 | 0.00 | 0.00 | 95 | 1007.6 |
| 20260505090032 | 39 | 99 | 3.0 | 4.0 | 0.00 | 0.00 | 0.00 | 95 | 1007.5 |
| 20260505085530 | 39 | 91 | 3.0 | 4.0 | 0.00 | 0.00 | 0.00 | 95 | 1007.3 |
| 20260505085028 | 39 | 97 | 4.0 | 5.0 | 0.00 | 0.00 | 0.00 | 94 | 1007.5 |
| 20260505084526 | 39 | 82 | 2.0 | 4.0 | 0.00 | 0.00 | 0.00 | 95 | 1007.5 |
| 20260505084023 | 39 | 92 | 2.0 | 5.0 | 0.00 | 0.00 | 0.00 | 95 | 1007.5 |
| 20260505083520 | 39 | 93 | 4.0 | 4.0 | 0.00 | 0.00 | 0.00 | 95 | 1007.4 |
| 20260505083017 | 39 | 83 | 3.0 | 4.0 | 0.00 | 0.00 | 0.00 | 95 | 1007.5 |
| 20260505082512 | 39 | 99 | 4.0 | 5.0 | 0.00 | 0.00 | 0.00 | 94 | 1007.6 |
| 20260505082009 | 39 | 97 | 6.0 | 6.0 | 0.00 | 0.00 | 0.00 | 95 | 1007.6 |
| 20260505081506 | 39 | 79 | 3.0 | 3.0 | 0.00 | 0.00 | 0.00 | 95 | 1007.6 |
| 20260505081003 | 38 | 87 | 2.0 | 5.0 | 0.00 | 0.00 | 0.00 | 94 | 1007.6 |
| 20260505080459 | 39 | 108 | 5.0 | 6.0 | 0.00 | 0.00 | 0.00 | 94 | 1007.8 |
| 20260505075955 | 39 | 104 | 2.0 | 5.0 | 0.00 | 0.00 | 0.00 | 95 | 1007.8 |
| 20260505075451 | 39 | 100 | 3.0 | 4.0 | 0.00 | 0.00 | 0.00 | 95 | 1007.7 |
| 20260505074949 | 38 | 101 | 2.0 | 4.0 | 0.00 | 0.00 | 0.00 | 94 | 1007.8 |
| 20260505074447 | 38 | 96 | 2.0 | 4.0 | 0.00 | 0.00 | 0.00 | 94 | 1007.8 |
| 20260505073943 | 38 | 91 | 3.0 | 4.0 | 0.00 | 0.00 | 0.00 | 94 | 1007.9 |
| 20260505073441 | 38 | 94 | 3.0 | 5.0 | 0.00 | 0.00 | 0.00 | 94 | 1008.0 |
| 20260505072938 | 38 | 93 | 2.0 | 4.0 | 0.00 | 0.00 | 0.00 | 94 | 1007.8 |
| 20260505072434 | 38 | 98 | 3.0 | 4.0 | 0.00 | 0.00 | 0.00 | 94 | 1007.8 |
| 20260505071930 | 38 | 85 | 2.0 | 6.0 | 0.00 | 0.00 | 0.00 | 94 | 1007.7 |
| 20260505071426 | 38 | 87 | 2.0 | 4.0 | 0.00 | 0.00 | 0.00 | 94 | 1007.6 |
| 20260505070925 | 38 | 95 | 2.0 | 4.0 | 0.00 | 0.00 | 0.00 | 93 | 1007.8 |
| 20260505070421 | 38 | 96 | 4.0 | 5.0 | 0.00 | 0.00 | 0.00 | 94 | 1007.7 |
| 20260505065917 | 38 | 89 | 3.0 | 5.0 | 0.00 | 0.00 | 0.00 | 93 | 1007.8 |
| 20260505065413 | 38 | 94 | 2.0 | 6.0 | 0.00 | 0.00 | 0.00 | 93 | 1007.6 |
| 20260505064910 | 38 | 91 | 4.0 | 4.0 | 0.00 | 0.00 | 0.00 | 93 | 1007.8 |
| 20260505064407 | 38 | 87 | 3.0 | 5.0 | 0.00 | 0.00 | 0.00 | 93 | 1007.7 |
| 20260505063906 | 39 | 85 | 2.0 | 4.0 | 0.00 | 0.00 | 0.00 | 93 | 1007.9 |
| 20260505063402 | 39 | 86 | 2.0 | 4.0 | 0.00 | 0.00 | 0.00 | 93 | 1007.7 |
| 20260505062858 | 39 | 91 | 2.0 | 3.0 | 0.00 | 0.00 | 0.00 | 93 | 1007.6 |
| 20260505062355 | 39 | 85 | 1.0 | 4.0 | 0.00 | 0.00 | 0.00 | 92 | 1007.7 |
| 20260505061852 | 39 | 94 | 2.0 | 2.0 | 0.00 | 0.00 | 0.00 | 92 | 1007.6 |
| 20260505061351 | 39 | 96 | 2.0 | 4.0 | 0.00 | 0.00 | 0.00 | 93 | 1007.7 |
| 20260505060848 | 39 | 92 | 3.0 | 5.0 | 0.00 | 0.00 | 0.00 | 92 | 1007.7 |
| 20260505060344 | 39 | 85 | 3.0 | 5.0 | 0.00 | 0.00 | 0.00 | 92 | 1007.9 |
| 20260505055840 | 39 | 98 | 4.0 | 5.0 | 0.00 | 0.00 | 0.00 | 92 | 1007.7 |
| 20260505055336 | 39 | 98 | 4.0 | 5.0 | 0.00 | 0.00 | 0.00 | 92 | 1007.9 |
| 20260505054834 | 39 | 88 | 3.0 | 5.0 | 0.00 | 0.00 | 0.00 | 92 | 1007.6 |
| 20260505054331 | 39 | 96 | 3.0 | 4.0 | 0.00 | 0.00 | 0.00 | 92 | 1007.8 |
| 20260505053829 | 39 | 84 | 2.0 | 4.0 | 0.00 | 0.00 | 0.00 | 91 | 1007.6 |
| 20260505053326 | 39 | 99 | 2.0 | 5.0 | 0.00 | 0.00 | 0.00 | 91 | 1007.7 |
| 20260505052822 | 40 | 95 | 4.0 | 5.0 | 0.00 | 0.00 | 0.00 | 91 | 1007.8 |
| 20260505052319 | 40 | 95 | 4.0 | 4.0 | 0.00 | 0.00 | 0.00 | 91 | 1007.6 |
| 20260505051817 | 40 | 99 | 2.0 | 4.0 | 0.00 | 0.00 | 0.00 | 91 | 1007.5 |
| 20260505051314 | 40 | 73 | 2.0 | 4.0 | 0.00 | 0.00 | 0.00 | 91 | 1007.4 |
| 20260505050812 | 41 | 94 | 2.0 | 3.0 | 0.00 | 0.00 | 0.00 | 90 | 1007.6 |
| 20260505050310 | 41 | 71 | 2.0 | 4.0 | 0.00 | 0.00 | 0.00 | 91 | 1007.7 |
| 20260505041740 | 42 | 85 | 3.0 | 4.0 | 0.00 | 0.00 | 0.00 | 89 | 1007.3 |
| 20260505041237 | 42 | 98 | 3.0 | 4.0 | 0.00 | 0.00 | 0.00 | 89 | 1007.2 |
| 20260505040734 | 42 | 91 | 3.0 | 5.0 | 0.00 | 0.00 | 0.00 | 88 | 1007.3 |
| 20260505040232 | 42 | 91 | 2.0 | 5.0 | 0.00 | 0.00 | 0.00 | 88 | 1007.3 |
| 20260505035729 | 42 | 96 | 3.0 | 4.0 | 0.00 | 0.03 | 0.03 | 88 | 1007.1 |
| 20260505035224 | 42 | 105 | 3.0 | 3.0 | 0.00 | 0.03 | 0.03 | 87 | 1007.2 |
| 20260505034722 | 43 | 102 | 2.0 | 5.0 | 0.00 | 0.03 | 0.03 | 87 | 1007.2 |
| 20260505034219 | 43 | 105 | 4.0 | 4.0 | 0.00 | 0.03 | 0.03 | 87 | 1007.1 |
| 20260505033715 | 43 | 93 | 2.0 | 5.0 | 0.00 | 0.03 | 0.03 | 87 | 1006.9 |
| 20260505033213 | 43 | 96 | 2.0 | 4.0 | 0.00 | 0.03 | 0.03 | 86 | 1007.1 |
| 20260505032711 | 44 | 97 | 2.0 | 5.0 | 0.00 | 0.03 | 0.03 | 86 | 1007.2 |
| 20260505032206 | 44 | 96 | 4.0 | 4.0 | 0.00 | 0.03 | 0.03 | 86 | 1007.0 |
| 20260505031704 | 44 | 95 | 2.0 | 4.0 | 0.00 | 0.03 | 0.03 | 86 | 1007.1 |
| 20260505031200 | 44 | 108 | 3.0 | 4.0 | 0.00 | 0.03 | 0.03 | 86 | 1007.1 |
| 20260505030657 | 44 | 99 | 2.0 | 4.0 | 0.00 | 0.03 | 0.03 | 86 | 1007.0 |
| 20260505030153 | 44 | 99 | 4.0 | 4.0 | 0.00 | 0.03 | 0.03 | 85 | 1007.1 |
| 20260505025649 | 45 | 93 | 2.0 | 4.0 | 0.00 | 0.03 | 0.03 | 84 | 1007.2 |
| 20260505025148 | 45 | 99 | 2.0 | 3.0 | 0.00 | 0.03 | 0.03 | 84 | 1007.1 |
| 20260505024645 | 45 | 105 | 4.0 | 5.0 | 0.00 | 0.03 | 0.03 | 84 | 1007.0 |
| 20260505024142 | 45 | 83 | 3.0 | 4.0 | 0.00 | 0.03 | 0.03 | 84 | 1007.0 |
| 20260505023639 | 46 | 104 | 4.0 | 5.0 | 0.00 | 0.03 | 0.03 | 84 | 1007.3 |
| 20260505023137 | 46 | 99 | 2.0 | 4.0 | 0.00 | 0.03 | 0.03 | 83 | 1007.6 |
| 20260505022634 | 46 | 83 | 2.0 | 3.0 | 0.00 | 0.03 | 0.03 | 83 | 1007.1 |
| 20260505022131 | 47 | 79 | 1.0 | 2.0 | 0.00 | 0.03 | 0.03 | 82 | 1007.2 |
| 20260505021627 | 47 | 97 | 1.0 | 3.0 | 0.00 | 0.03 | 0.03 | 82 | 1007.5 |
| 20260505021124 | 47 | 93 | 2.0 | 4.0 | 0.00 | 0.03 | 0.03 | 81 | 1007.3 |
| 20260505020620 | 47 | 106 | 1.0 | 4.0 | 0.00 | 0.03 | 0.03 | 80 | 1007.4 |
| 20260505020116 | 48 | 102 | 2.0 | 4.0 | 0.00 | 0.03 | 0.03 | 81 | 1007.6 |
| 20260505015613 | 48 | 111 | 3.0 | 5.0 | 0.00 | 0.03 | 0.03 | 80 | 1007.5 |
| 20260505015110 | 48 | 69 | 1.0 | 4.0 | 0.00 | 0.03 | 0.03 | 80 | 1007.6 |
| 20260505014606 | 48 | 98 | 4.0 | 4.0 | 0.00 | 0.03 | 0.03 | 80 | 1007.7 |
| 20260505014103 | 48 | 92 | 2.0 | 2.0 | 0.00 | 0.03 | 0.03 | 80 | 1007.5 |
| 20260505013601 | 48 | 89 | 2.0 | 3.0 | 0.00 | 0.03 | 0.03 | 80 | 1007.3 |
| 20260505013058 | 48 | 109 | 2.0 | 3.0 | 0.00 | 0.03 | 0.03 | 79 | 1007.3 |
| 20260505012556 | 48 | 89 | 2.0 | 2.0 | 0.00 | 0.03 | 0.03 | 78 | 1007.1 |
| 20260505012053 | 49 | 89 | 2.0 | 3.0 | 0.00 | 0.03 | 0.03 | 78 | 1007.1 |
| 20260505011548 | 48 | 166 | 0.0 | 2.0 | 0.00 | 0.03 | 0.03 | 79 | 1007.3 |
| 20260505011046 | 49 | 111 | 2.0 | 4.0 | 0.00 | 0.03 | 0.03 | 79 | 1007.1 |
| 20260505010541 | 49 | 82 | 2.0 | 3.0 | 0.00 | 0.03 | 0.03 | 78 | 1007.1 |
| 20260505010038 | 49 | 92 | 3.0 | 4.0 | 0.00 | 0.03 | 0.03 | 78 | 1007.1 |
| 20260505005534 | 50 | 101 | 3.0 | 4.0 | 0.00 | 0.03 | 0.03 | 77 | 1006.8 |
| 20260505005032 | 51 | 89 | 2.0 | 4.0 | 0.00 | 0.03 | 0.03 | 74 | 1006.9 |
| 20260505004529 | 51 | 87 | 2.0 | 3.0 | 0.00 | 0.03 | 0.03 | 72 | 1006.8 |
| 20260505004026 | 51 | 104 | 1.0 | 3.0 | 0.00 | 0.03 | 0.03 | 74 | 1007.0 |
| 20260505003523 | 51 | 103 | 4.0 | 4.0 | 0.00 | 0.03 | 0.03 | 75 | 1006.8 |
| 20260505003020 | 51 | 91 | 3.0 | 3.0 | 0.00 | 0.03 | 0.03 | 74 | 1006.7 |
| 20260505002520 | 51 | 102 | 4.0 | 4.0 | 0.00 | 0.03 | 0.03 | 74 | 1006.7 |
| 20260505002020 | 51 | 102 | 3.0 | 4.0 | 0.00 | 0.03 | 0.03 | 72 | 1006.3 |
| 20260505001517 | 51 | 76 | 2.0 | 3.0 | 0.00 | 0.03 | 0.03 | 71 | 1006.3 |
| 20260505001014 | 51 | 83 | 2.0 | 3.0 | 0.00 | 0.03 | 0.03 | 72 | 1006.4 |
| 20260505000511 | 51 | 105 | 2.0 | 4.0 | 0.00 | 0.03 | 0.03 | 72 | 1006.1 |
| 20260505000009 | 52 | 106 | 1.0 | 3.0 | 0.00 | 0.03 | 0.03 | 69 | 1006.0 |
| 20260504235505 | 53 | 87 | 2.0 | 3.0 | 0.00 | 0.03 | 0.03 | 67 | 1005.9 |
| 20260504235002 | 54 | 75 | 2.0 | 3.0 | 0.00 | 0.03 | 0.03 | 64 | 1006.0 |
| 20260504234459 | 55 | 84 | 2.0 | 2.0 | 0.00 | 0.03 | 0.03 | 62 | 1005.9 |
| 20260504233955 | 56 | 113 | 0.0 | 1.0 | 0.00 | 0.03 | 0.03 | 61 | 1005.8 |
| 20260504233451 | 57 | 102 | 0.0 | 2.0 | 0.00 | 0.03 | 0.03 | 60 | 1005.8 |
| 20260504232948 | 58 | 69 | 2.0 | 2.0 | 0.00 | 0.03 | 0.03 | 57 | 1005.8 |
| 20260504232445 | 59 | 59 | 0.0 | 1.0 | 0.00 | 0.03 | 0.03 | 56 | 1005.8 |
| 20260504231943 | 60 | 76 | 0.0 | 1.0 | 0.00 | 0.03 | 0.03 | 54 | 1005.7 |
| 20260504231439 | 61 | 80 | 1.0 | 2.0 | 0.00 | 0.03 | 0.03 | 52 | 1005.7 |
| 20260504230935 | 62 | 89 | 0.0 | 2.0 | 0.00 | 0.03 | 0.03 | 50 | 1005.6 |
| 20260504230432 | 62 | 294 | 0.0 | 2.0 | 0.00 | 0.03 | 0.03 | 46 | 1005.5 |
| 20260504225931 | 62 | 269 | 0.0 | 3.0 | 0.00 | 0.03 | 0.03 | 48 | 1005.4 |
| 20260504225427 | 62 | 223 | 2.0 | 5.0 | 0.00 | 0.03 | 0.03 | 47 | 1005.5 |
| 20260504224925 | 62 | 272 | 2.0 | 4.0 | 0.00 | 0.03 | 0.03 | 47 | 1005.6 |
| 20260504224421 | 62 | 263 | 2.0 | 5.0 | 0.00 | 0.03 | 0.03 | 48 | 1005.6 |
| 20260504223918 | 62 | 286 | 2.0 | 4.0 | 0.00 | 0.03 | 0.03 | 47 | 1005.4 |
| 20260504223414 | 62 | 246 | 2.0 | 3.0 | 0.00 | 0.03 | 0.03 | 47 | 1005.4 |
| 20260504222910 | 63 | 267 | 4.0 | 7.0 | 0.00 | 0.03 | 0.03 | 46 | 1005.4 |
| 20260504222407 | 64 | 289 | 3.0 | 6.0 | 0.00 | 0.03 | 0.03 | 45 | 1005.5 |
| 20260504221906 | 64 | 236 | 2.0 | 4.0 | 0.00 | 0.03 | 0.03 | 45 | 1005.6 |
| 20260504221402 | 63 | 267 | 4.0 | 5.0 | 0.00 | 0.03 | 0.03 | 47 | 1005.7 |
| 20260504220859 | 63 | 269 | 4.0 | 5.0 | 0.00 | 0.03 | 0.03 | 47 | 1005.6 |
| 20260504220356 | 63 | 217 | 2.0 | 4.0 | 0.00 | 0.03 | 0.03 | 47 | 1005.6 |
| 20260504215853 | 62 | 298 | 6.0 | 10.0 | 0.00 | 0.03 | 0.03 | 47 | 1005.6 |
| 20260504215349 | 62 | 282 | 4.0 | 10.0 | 0.00 | 0.03 | 0.03 | 47 | 1005.6 |
| 20260504214845 | 62 | 291 | 7.0 | 9.0 | 0.00 | 0.03 | 0.03 | 47 | 1005.6 |
| 20260504214342 | 62 | 246 | 5.0 | 11.0 | 0.00 | 0.03 | 0.03 | 48 | 1005.6 |
| 20260504213839 | 61 | 247 | 7.0 | 13.0 | 0.00 | 0.03 | 0.03 | 47 | 1005.6 |
| 20260504213335 | 62 | 258 | 9.0 | 11.0 | 0.00 | 0.03 | 0.03 | 46 | 1005.5 |
| 20260504212833 | 62 | 302 | 10.0 | 16.0 | 0.00 | 0.03 | 0.03 | 48 | 1005.6 |
| 20260504212328 | 61 | 244 | 9.0 | 15.0 | 0.00 | 0.03 | 0.03 | 48 | 1005.5 |
| 20260504211827 | 62 | 251 | 7.0 | 12.0 | 0.00 | 0.03 | 0.03 | 47 | 1005.6 |
| 20260504211328 | 61 | 288 | 8.0 | 11.0 | 0.00 | 0.03 | 0.03 | 48 | 1005.4 |
| 20260504210825 | 61 | 266 | 6.0 | 16.0 | 0.00 | 0.03 | 0.03 | 49 | 1005.5 |
| 20260504210322 | 61 | 251 | 5.0 | 13.0 | 0.00 | 0.03 | 0.03 | 49 | 1005.5 |
| 20260504205820 | 61 | 240 | 5.0 | 11.0 | 0.00 | 0.03 | 0.03 | 48 | 1005.4 |
| 20260504205317 | 60 | 226 | 3.0 | 17.0 | 0.00 | 0.03 | 0.03 | 48 | 1005.6 |
| 20260504204815 | 60 | 306 | 10.0 | 16.0 | 0.00 | 0.03 | 0.03 | 50 | 1005.6 |
| 20260504204313 | 60 | 315 | 6.0 | 15.0 | 0.00 | 0.03 | 0.03 | 52 | 1005.5 |
| 20260504203813 | 60 | 308 | 16.0 | 19.0 | 0.00 | 0.03 | 0.03 | 51 | 1005.9 |
| 20260504203309 | 60 | 238 | 7.0 | 13.0 | 0.00 | 0.03 | 0.03 | 51 | 1005.5 |
| 20260504202804 | 60 | 265 | 9.0 | 13.0 | 0.00 | 0.03 | 0.03 | 51 | 1005.5 |
| 20260504202304 | 60 | 282 | 13.0 | 16.0 | 0.00 | 0.03 | 0.03 | 52 | 1005.5 |
| 20260504201758 | 60 | 306 | 12.0 | 16.0 | 0.00 | 0.03 | 0.03 | 53 | 1005.4 |
| 20260504201256 | 59 | 286 | 9.0 | 14.0 | 0.00 | 0.03 | 0.03 | 53 | 1005.5 |
| 20260504200754 | 59 | 285 | 8.0 | 14.0 | 0.00 | 0.03 | 0.03 | 54 | 1005.4 |
| 20260504200249 | 60 | 316 | 7.0 | 15.0 | 0.00 | 0.03 | 0.03 | 53 | 1005.3 |
| 20260504195746 | 59 | 245 | 6.0 | 19.0 | 0.00 | 0.03 | 0.03 | 54 | 1005.5 |
| 20260504195241 | 59 | 254 | 10.0 | 19.0 | 0.00 | 0.03 | 0.03 | 52 | 1005.6 |
| 20260504194739 | 59 | 251 | 7.0 | 12.0 | 0.00 | 0.03 | 0.03 | 53 | 1005.7 |
| 20260504194235 | 59 | 231 | 7.0 | 12.0 | 0.00 | 0.03 | 0.03 | 54 | 1005.6 |
| 20260504193731 | 59 | 254 | 10.0 | 18.0 | 0.00 | 0.03 | 0.03 | 53 | 1005.7 |
| 20260504193229 | 59 | 284 | 11.0 | 12.0 | 0.00 | 0.03 | 0.03 | 54 | 1005.5 |
| 20260504192727 | 58 | 246 | 13.0 | 16.0 | 0.00 | 0.03 | 0.03 | 55 | 1005.7 |
| 20260504192225 | 58 | 280 | 9.0 | 22.0 | 0.00 | 0.03 | 0.03 | 56 | 1005.6 |
| 20260504191723 | 57 | 254 | 7.0 | 15.0 | 0.00 | 0.03 | 0.03 | 55 | 1005.5 |
| 20260504191220 | 58 | 316 | 14.0 | 20.0 | 0.00 | 0.03 | 0.03 | 55 | 1005.7 |
| 20260504190715 | 57 | 240 | 14.0 | 20.0 | 0.00 | 0.03 | 0.03 | 56 | 1005.5 |
| 20260504190212 | 57 | 280 | 11.0 | 18.0 | 0.00 | 0.03 | 0.03 | 56 | 1005.4 |
| 20260504185708 | 57 | 264 | 6.0 | 15.0 | 0.00 | 0.03 | 0.03 | 57 | 1005.7 |
| 20260504185205 | 57 | 249 | 4.0 | 20.0 | 0.00 | 0.03 | 0.03 | 58 | 1005.5 |
| 20260504184701 | 57 | 237 | 9.0 | 20.0 | 0.00 | 0.03 | 0.03 | 58 | 1005.7 |